SCP
0 0 0 0 0 0 0 1 1 1 0 0 0 0 0 0 0 0 -0 -0 -0 -0 -0 -0 -0 -0 0 0 -0 -0 0 0
0 0 0 -0 0 0 0 0 0 1 0 0 0 0 0 0 0 0 -0 -0 -0 0 0 0 0 0 0 0 -0 -0 0 0
0 0 -0 -0 0 0 0 0 0 0 1 0 0 1 0 0 0 0 0 0 0 0 0 0 -0 0 0 -0 -0 0 0 0
0 -0 -0 -0 -0 0 0 0 0 0 1 0 1 1 0 0 0 0 0 0 0 0 0 -0 -0 0 0 -0 -0 0 0 0
-0 0 -0 0 0 0 0 0 0 0 0 0 0 1 0 0 0 0 0 0 0 0 0 0 0 0 0 -0 0 0 0 0
0 0 0 0 0 0 0 0 0 0 0 0 0 0 0 0 0 0 0 0 0 0 0 0 0 0 0 0 0 0 0 0
0 0 0 0 0 0 0 0 0 0 0 0 0 0 0 0 0 0 0 0 0 0 0 -0 0 0 0 0 0 0 0 0
0 0 0 0 0 0 0 0 0 0 0 0 0 0 0 0 0 0 0 0 0 0 -0 -0 -0 0 0 0 0 0 0 0
0 0 0 0 0 0 0 0 0 0 0 0 0 0 0 0 0 0 0 0 0 0 0 -0 -0 0 0 0 0 0 0 0
0 0 0 0 0 0 0 0 0 0 0 0 0 0 0 0 0 0 0 0 0 0 0 -0 0 0 0 0 0 0 0 0
0 0 0 0 0 0 0 0 0 0 0 0 0 0 0 0 0 0 0 0 0 0 0 0 0 0 0 0 0 0 0 0
0 0 0 0 0 0 0 0 0 0 0 0 0 0 0 0 0 0 0 0 0 0 0 0 0 0 0 0 0 0 0 0
0 0 0 0 0 0 0 0 0 0 0 0 0 0 0 0 0 0 0 0 0 0 0 0 0 0 0 0 0 0 0 0
0 0 0 0 0 0 0 0 0 0 0 0 0 0 0 0 0 0 0 0 0 0 0 0 0 0 0 0 0 0 0 0
0 0 0 0 0 0 0 -0 0 0 0 0 0 0 0 0 0 0 0 0 0 0 0 0 0 0 0 0 0 0 0 0
-0 -0 0 0 0 0 0 0 -0 0 0 0 0 0 0 0 0 0 0 0 0 0 -0 0 0 0 0 0 0 0 0 0
-0 -0 -0 0 0 0 0 0 0 0 0 0 0 0 0 0 0 0 0 0 -0 0 -0 -0 0 0 0 0 0 0 0 0
-0 -0 -0 -0 -0 -0 -0 -0 0 0 0 0 0 0 0 0 -0 -0 0 -0 0 -0 -0 -0 0 0 0 0 0 0 0 0
-0 -0 -0 -0 -0 -0 -0 -0 -0 -0 -0 -0 -0 -0 -0 0 0 0 -0 0 -0 -0 -0 -0 0 0 0 0 0 0 0 0
-0 -0 -0 -0 -0 -0 0 -0 0 0 -0 -0 -0 -0 -0 0 0 0 0 -0 -0 0 0 0 0 0 0 0 0 0 0 0
Wind_Speed_500mb
32 35 35 43 77 74 89 90 96 89 80 74 68 66 61 64 59 56 50 54 53 49 48 46 45 43 43 42 40 48 33 33
28 31 34 38 47 55 73 78 85 91 81 76 70 71 71 67 62 56 55 59 54 50 46 43 42 42 42 41 38 46 33 32
28 24 20 35 33 46 47 75 80 83 81 75 72 74 69 64 59 61 60 57 52 49 46 44 41 40 38 40 37 31 31 27
24 19 12 25 38 48 50 40 73 78 78 76 75 75 72 58 65 62 60 55 52 48 44 43 40 41 37 33 25 30 29 26
26 30 17 24 33 42 45 48 54 62 68 75 80 79 76 70 71 63 61 57 55 48 44 37 32 32 31 23 31 28 27 26
26 34 32 32 36 51 62 71 87 79 74 79 82 76 68 77 64 58 66 60 55 48 44 31 32 30 27 28 27 26 26 26
24 31 29 37 34 35 45 69 65 100 89 85 84 73 68 75 63 56 55 51 49 44 36 33 32 33 30 29 27 25 27 24
16 25 35 35 34 38 47 59 70 106 101 92 82 70 71 68 68 55 52 50 45 41 37 34 30 29 29 27 24 22 25 26
15 15 34 34 40 48 55 66 85 104 106 91 91 83 83 77 69 57 49 48 49 43 37 32 30 27 26 26 24 24 24 25
15 14 17 23 27 42 40 67 108 102 99 91 87 84 82 77 68 62 61 57 51 45 42 32 30 26 25 22 21 21 23 24
14 9 10 13 10 51 69 101 100 101 94 85 82 75 69 67 63 59 56 55 50 44 37 32 28 26 24 23 24 23 24 23
18 14 14 16 26 68 73 95 88 94 84 83 78 73 67 63 59 56 51 44 41 40 37 31 25 22 20 23 25 25 25 28
26 19 28 28 40 54 50 62 84 83 81 88 84 69 60 56 54 48 40 33 41 34 33 30 29 29 24 19 25 29 31 28
25 24 23 34 44 53 65 69 83 81 80 81 82 72 65 59 47 46 41 43 35 42 35 34 32 33 23 17 18 24 36 42
31 29 28 36 45 55 59 74 85 82 85 84 73 77 70 67 65 57 63 56 51 44 43 42 30 34 37 23 16 24 14 24
33 37 36 40 45 56 63 69 74 87 90 92 83 87 73 68 64 63 57 50 52 52 53 46 37 32 30 47 47 28 25 22
37 38 41 48 48 59 67 69 48 67 87 99 87 73 67 58 61 57 53 56 60 53 53 50 44 42 38 32 35 42 43 44
39 42 45 48 58 59 66 69 64 58 70 94 99 80 78 76 66 61 60 66 62 57 57 51 50 51 50 45 45 43 43 45
41 42 48 52 54 62 65 63 70 54 67 79 75 88 95 92 85 92 81 71 61 59 57 54 53 54 55 55 56 55 58 56
46 46 45 56 59 59 56 53 61 55 66 64 80 87 79 81 79 78 75 64 69 64 60 56 51 51 56 60 66 68 72 74
Wind_Direction_500mb
245 232 246 247 255 235 235 193 193 188 183 184 181 177 176 169 165 157 156 151 149 140 135 130 128 130 129 130 132 122 118 119
240 236 246 268 240 240 224 189 193 188 185 183 182 177 173 172 166 156 152 154 147 142 137 131 130 129 130 130 129 113 119 120
231 224 235 211 225 207 219 181 189 186 181 183 179 174 169 167 163 157 151 151 150 145 143 139 133 129 130 134 114 126 118 126
215 210 208 224 214 207 225 224 164 177 179 180 176 171 167 165 160 156 152 154 154 151 148 141 138 135 137 126 133 129 123 131
248 237 226 215 220 213 207 221 176 179 185 174 176 171 163 162 157 156 152 157 159 158 155 146 152 147 145 147 141 127 131 138
250 240 245 237 204 215 226 211 195 186 184 179 175 172 165 160 156 157 155 158 163 164 160 166 158 157 153 148 135 138 139 146
259 249 244 213 206 209 214 218 218 198 183 182 177 170 164 161 157 156 154 157 165 162 169 168 166 159 154 146 144 147 146 149
248 254 228 220 226 231 223 215 190 184 179 180 184 176 168 167 160 157 158 159 169 166 169 168 168 165 157 154 149 153 153 154
240 243 232 234 236 246 237 219 205 178 178 179 180 180 176 172 166 161 160 163 168 166 166 172 171 168 167 167 167 164 171 168
224 246 226 236 258 257 215 197 176 176 177 179 178 181 177 172 170 168 168 166 171 166 176 172 174 173 174 175 180 184 187 190
188 200 195 198 177 158 171 167 161 171 168 170 178 177 177 174 173 171 167 168 172 171 172 176 175 178 182 188 199 200 206 208
203 187 178 169 154 147 151 167 164 162 162 169 173 178 179 177 175 173 171 171 178 179 185 187 182 186 187 200 209 214 220 228
200 177 167 168 162 154 161 155 160 160 170 174 177 172 183 187 178 176 177 185 196 195 197 204 201 203 205 214 231 236 235 231
195 192 177 178 172 168 168 166 162 165 169 177 181 179 181 186 192 184 189 201 207 210 211 219 217 220 211 224 234 244 243 245
195 196 199 185 182 183 180 171 172 171 176 178 180 186 190 200 194 201 203 205 211 216 223 224 216 231 226 222 235 250 242 242
196 191 196 198 190 187 186 180 179 185 184 175 181 187 197 200 202 204 210 216 219 223 228 230 223 231 238 240 240 252 257 271
195 195 195 201 194 197 190 185 184 188 189 186 190 188 189 196 205 208 218 223 228 226 233 233 234 235 239 247 252 254 259 256
193 196 200 199 202 201 198 199 189 195 196 196 198 204 202 206 210 221 225 231 230 237 241 243 245 250 252 248 252 256 261 257
192 192 197 199 200 207 207 208 201 200 197 201 197 205 209 213 223 220 230 231 231 236 243 248 253 255 262 265 265 262 260 259
197 194 194 197 197 202 199 201 196 207 206 205 210 210 212 215 220 225 229 230 235 241 246 252 254 259 264 269 275 270 271 264
Wind_Speed_850mb
32 35 35 43 77 74 89 90 96 89 80 74 68 66 61 64 59 56 50 54 53 49 48 46 45 43 43 42 40 48 33 33
28 31 34 38 47 55 73 78 85 91 81 76 70 71 71 67 62 56 55 59 54 50 46 43 42 42 42 41 38 46 33 32
28 24 20 35 33 46 47 75 80 83 81 75 72 74 69 64 59 61 60 57 52 49 46 44 41 40 38 40 37 31 31 27
24 19 12 25 38 48 50 40 73 78 78 76 75 75 72 58 65 62 60 55 52 48 44 43 40 41 37 33 25 30 29 26
26 30 17 24 33 42 45 48 54 62 68 75 80 79 76 70 71 63 61 57 55 48 44 37 32 32 31 23 31 28 27 26
26 34 32 32 36 51 62 71 87 79 74 79 82 76 68 77 64 58 66 60 55 48 44 31 32 30 27 28 27 26 26 26
24 31 29 37 34 35 45 69 65 100 89 85 84 73 68 75 63 56 55 51 49 44 36 33 32 33 30 29 27 25 27 24
16 25 35 35 34 38 47 59 70 106 101 92 82 70 71 68 68 55 52 50 45 41 37 34 30 29 29 27 24 22 25 26
15 15 34 34 40 48 55 66 85 104 106 91 91 83 83 77 69 57 49 48 49 43 37 32 30 27 26 26 24 24 24 25
15 14 17 23 27 42 40 67 108 102 99 91 87 84 82 77 68 62 61 57 51 45 42 32 30 26 25 22 21 21 23 24
14 9 10 13 10 51 69 101 100 101 94 85 82 75 69 67 63 59 56 55 50 44 37 32 28 26 24 23 24 23 24 23
18 14 14 16 26 68 73 95 88 94 84 83 78 73 67 63 59 56 51 44 41 40 37 31 25 22 20 23 25 25 25 28
26 19 28 28 40 54 50 62 84 83 81 88 84 69 60 56 54 48 40 33 41 34 33 30 29 29 24 19 25 29 31 28
25 24 23 34 44 53 65 69 83 81 80 81 82 72 65 59 47 46 41 43 35 42 35 34 32 33 23 17 18 24 36 42
31 29 28 36 45 55 59 74 85 82 85 84 73 77 70 67 65 57 63 56 51 44 43 42 30 34 37 23 16 24 14 24
33 37 36 40 45 56 63 69 74 87 90 92 83 87 73 68 64 63 57 50 52 52 53 46 37 32 30 47 47 28 25 22
37 38 41 48 48 59 67 69 48 67 87 99 87 73 67 58 61 57 53 56 60 53 53 50 44 42 38 32 35 42 43 44
39 42 45 48 58 59 66 69 64 58 70 94 99 80 78 76 66 61 60 66 62 57 57 51 50 51 50 45 45 43 43 45
41 42 48 52 54 62 65 63 70 54 67 79 75 88 95 92 85 92 81 71 61 59 57 54 53 54 55 55 56 55 58 56
46 46 45 56 59 59 56 53 61 55 66 64 80 87 79 81 79 78 75 64 69 64 60 56 51 51 56 60 66 68 72 74
Wind_Direction_850mb
245 232 246 247 255 235 235 193 193 188 183 184 181 177 176 169 165 157 156 151 149 140 135 130 128 130 129 130 132 122 118 119
240 236 246 268 240 240 224 189 193 188 185 183 182 177 173 172 166 156 152 154 147 142 137 131 130 129 130 130 129 113 119 120
231 224 235 211 225 207 219 181 189 186 181 183 179 174 169 167 163 157 151 151 150 145 143 139 133 129 130 134 114 126 118 126
215 210 208 224 214 207 225 224 164 177 179 180 176 171 167 165 160 156 152 154 154 151 148 141 138 135 137 126 133 129 123 131
248 237 226 215 220 213 207 221 176 179 185 174 176 171 163 162 157 156 152 157 159 158 155 146 152 147 145 147 141 127 131 138
250 240 245 237 204 215 226 211 195 186 184 179 175 172 165 160 156 157 155 158 163 164 160 166 158 157 153 148 135 138 139 146
259 249 244 213 206 209 214 218 218 198 183 182 177 170 164 161 157 156 154 157 165 162 169 168 166 159 154 146 144 147 146 149
248 254 228 220 226 231 223 215 190 184 179 180 184 176 168 167 160 157 158 159 169 166 169 168 168 165 157 154 149 153 153 154
240 243 232 234 236 246 237 219 205 178 178 179 180 180 176 172 166 161 160 163 168 166 166 172 171 168 167 167 167 164 171 168
224 246 226 236 258 257 215 197 176 176 177 179 178 181 177 172 170 168 168 166 171 166 176 172 174 173 174 175 180 184 187 190
188 200 195 198 177 158 171 167 161 171 168 170 178 177 177 174 173 171 167 168 172 171 172 176 175 178 182 188 199 200 206 208
203 187 178 169 154 147 151 167 164 162 162 169 173 178 179 177 175 173 171 171 178 179 185 187 182 186 187 200 209 214 220 228
200 177 167 168 162 154 161 155 160 160 170 174 177 172 183 187 178 176 177 185 196 195 197 204 201 203 205 214 231 236 235 231
195 192 177 178 172 168 168 166 162 165 169 177 181 179 181 186 192 184 189 201 207 210 211 219 217 220 211 224 234 244 243 245
195 196 199 185 182 183 180 171 172 171 176 178 180 186 190 200 194 201 203 205 211 216 223 224 216 231 226 222 235 250 242 242
196 191 196 198 190 187 186 180 179 185 184 175 181 187 197 200 202 204 210 216 219 223 228 230 223 231 238 240 240 252 257 271
195 195 195 201 194 197 190 185 184 188 189 186 190 188 189 196 205 208 218 223 228 226 233 233 234 235 239 247 252 254 259 256
193 196 200 199 202 201 198 199 189 195 196 196 198 204 202 206 210 221 225 231 230 237 241 243 245 250 252 248 252 256 261 257
192 192 197 199 200 207 207 208 201 200 197 201 197 205 209 213 223 220 230 231 231 236 243 248 253 255 262 265 265 262 260 259
197 194 194 197 197 202 199 201 196 207 206 205 210 210 212 215 220 225 229 230 235 241 246 252 254 259 264 269 275 270 271 264